STARLINK-31133, 58622

Orbit data source: Space-Track

STARLINK-31133, 58622 is a payload satellite owned by SpaceX/Seattle (US) in LEO that was launched on Sat, 23 Dec 2023 UTC via an FALCON 9 launch vehicle from the Air Force Eastern Test Range (AFETR). Payload-class satellites include a variety of spacecraft equipped with specific instruments for various scientific and technological missions. These include communications satellites like Starlink; space stations such as the ISS; scientific satellites like the Hubble; Earth observation satellites from companies like Planet Labs, Umbra, and HawkEye 360; GPS; miniature CubeSats for education and research; and military/defense satellites.

Loading next visibility...
Identifier
58622, 2023-203E
Orbit
LEO
Country
Flag of USUS
Related business
Manufacturer
SpaceX/Seattle
Mission
Operational Commercial Communications
Bus & Motor
STARLINK V2M, Unknown motor
Mass
730 kg wet, ~700 kg dry
Launch date (UTC)
2023-12-23 (2 years ago)
Launch vehicle
FALCON 9
Launch site
Air Force Eastern Test Range (AFETR)
Object type
Payload
Rocket body
Debris
Shape & HBR
Box + 2 Pan, 17.7 m
Radar Cross Section
33.884 m², Large (>1 m²)

Expand to show TLE details & history
Last TLE update: 2 days ago

TLE from 2 days ago
0 STARLINK-31133
1 58622U 23203E   26171.36821646  .00001175  00000-0  52226-4 0  9991
2 58622  43.0004 207.3148 0001524 270.1186  89.9491 15.27578810139263
Epoch: 2026-06-20T08:50Z
TLE epoch observation values (Epoch: 2026-06-20T08:50:13.902Z)
Latitude
-0°
Longitude
166.17303°
Altitude
482.827 km
Speed
7.626 km/s
True Right ascension
13h 49m 15s
True Declination
0° 00' 00"
Sunlit
Object was in full shadow at epoch
Visualization orbit readout
Latitude
Unknown
Longitude
Unknown
Altitude
Unknown
Speed
Unknown
Apparent Right ascension
Unknown
Apparent Declination
Unknown
Sunlit
N/A
Visualization observer readout
Local Sidereal Time
21:25:35
Azimuth
Unknown
Elevation
Unknown
Doppler factor
Unknown
Orbital elements
Apogee altitude
486.044 km
Perigee altitude
483.952 km
Semi-major axis
6,863.135 km
Eccentricity
0.00015
Inclination
43.0004°
RAAN
207.3148°
Arg. of periapsis
270.1186°
True anomaly
89.96656°
Mean anomaly
89.9491°
Eccentric anomaly
89.95783°
Mean motion
3.81733 °/min
Orbital period
94.31 mins
BSTAR
0.000052226
Loading maneuver chart data...
Computing Atmospheric mass density...
Loading historical data...
Loading historical data...
Loading historical data...
Loading historical data...
Loading historical data...
Loading historical data...
Loading historical data...

Documentation

Showing up to 5 results
|